Powrót do katalogu

PSLV DEB

AktywnySSO
NORAD 28852·DEBRIS·🇮🇳 India

Wystrzelony Oct 22, 2001 z Satish Dhawan Space Centre

Loading…

Następne Przeloty (najbliższe 24 godziny)

TLE

ŚwieżeSource: Space-Track

Epoka: Sep 11, 2026, 08:29 UTC

1 28852U 01049PE  26254.35366961  .00000432  00000-0  67167-4 0  9997
2 28852  98.2417 298.7358 0042250  59.3903 359.7014 14.77723569711483

Śledź PSLV DEB w czasie rzeczywistym z AllMySat

Download on the App Store